Location: Mason Neck State Park
(38.6428°N, 77.1981°W)
Time: 07:08:47
(UTC-04:00)

Daily predictions for brighter satellites

Satellite Brightness Start Highest point End
(mag) Time Altitude Azimuth Time Altitude Azimuth Time Altitude Azimuth
Cosmos 1933 4.3 20:51:50 10° NNW 20:55:50 53° W 20:59:50 10° S
ALOS 2.6 20:51:20 10° S 20:55:59 73° WSW 21:00:40 10° NNW
Resurs 01 Rocket 4.0 20:52:45 10° SSW 20:56:20 24° W 20:59:56 10° NW
Cosmos 389 Rocket 3.4 20:54:52 10° NNW 20:58:14 50° W 21:01:36 10° S
ATLAS 5 CENTAUR R/B 3.3 20:53:39 10° NNW 20:59:08 35° NE 21:04:56 10° ESE
Cosmos 921 Rocket 4.5 21:00:19 10° SW 21:04:22 42° WNW 21:08:32 10° N
Cosmos 2278 Rocket 4.0 21:03:05 10° ESE 21:04:27 11° E 21:05:49 10° E
USA 234 4.3 21:01:22 10° ENE 21:05:57 20° ESE 21:10:30 10° SSE
Cosmos 1943 4.0 21:02:17 10° NNW 21:07:45 52° WSW 21:13:09 10° S
PSLV R/B 3.8 21:06:34 10° WNW 21:09:59 59° N 21:13:27 10° E
Meteor 2-3 Rocket 3.7 21:06:26 10° S 21:12:05 86° E 21:17:43 10° N
Abrixas rocket 2.3 21:10:31 10° NW 21:13:57 76° NNE 21:16:54 13° ESE
Okean 1-7 3.4 21:09:51 10° NNW 21:14:07 67° W 21:18:23 10° S
CZ-4 DEB 2.9 21:12:50 10° S 21:15:59 74° WSW 21:19:10 10° NNW
Cosmos 1844 Rocket 3.4 21:12:43 10° SSE 21:17:44 33° ESE 21:22:43 10° NE
Cosmos 2056 Rocket 3.7 21:13:00 10° S 21:17:58 48° ESE 21:22:54 10° NNE
Cosmos 1371 Rocket 4.0 21:14:36 10° S 21:19:53 71° ESE 21:25:10 10° NNE
Cosmos 1825 4.1 21:19:37 12° ESE 21:20:46 13° E 21:22:38 10° ENE
Cosmos 1674 Rocket 4.3 21:17:20 10° N 21:21:27 35° ENE 21:24:53 13° SE
Cosmos 1340 Rocket 3.0 21:18:18 10° SSW 21:22:15 76° W 21:26:17 10° N
Cosmos 1461 3.9 21:20:40 10° SW 21:25:18 58° WNW 21:29:49 10° NNE
Cosmos 1939 Rocket 2.8 21:21:35 10° SSE 21:25:22 62° ENE 21:29:14 10° N
Atlas Centaur 2 2.5 21:25:05 10° SW 21:27:50 21° S 21:29:20 16° SE
Cosmos 1782 3.4 21:26:18 10° N 21:30:07 40° E 21:32:53 17° SE
Cosmos 2263 Rocket 3.8 21:27:11 10° SW 21:32:27 38° WNW 21:37:43 10° N
CENTAUR R/B 3.1 21:28:26 10° NNW 21:36:23 83° ENE 21:43:29 15° SE
Cosmos 2154 Rocket 4.3 21:33:16 10° SSE 21:39:07 45° E 21:44:58 10° NNE
SL-27 R/B 3.2 21:37:19 10° N 21:40:48 40° ENE 21:42:35 23° SE
SL-8 R/B 3.7 21:36:39 10° WSW 21:41:29 88° NW 21:46:18 10° ENE
YAOGAN 6 3.5 21:40:07 21° ESE 21:41:38 30° ENE 21:44:45 10° N
Cosmos 1408 3.9 21:40:58 21° ESE 21:41:50 23° E 21:44:45 10° NE
NOSS 2-2 (D) 3.5 21:39:16 10° SSW 21:43:20 89° NW 21:48:00 10° NNE
Coronas F rocket 2.4 21:41:57 10° SSW 21:44:30 44° W 21:47:04 10° N
Cosmos 2184 Rocket 4.1 21:40:08 10° S 21:46:17 79° W 21:52:30 10° N
deb Chang Zheng 4 3.8 21:44:13 10° N 21:48:37 76° WNW 21:53:02 10° SSW
COS B Rocket 3.6 21:44:40 10° NNE 21:48:47 48° E 21:50:53 24° SSE
Cosmos 1975 Rocket 4.5 21:45:37 10° NNE 21:48:59 22° ENE 21:50:14 19° E
Cosmos 1606 3.2 21:48:57 10° N 21:52:44 43° E 21:54:20 28° SE
Okean 3 4.5 21:52:32 10° NNE 21:56:21 30° ENE 21:57:39 25° ESE
Cosmos 1908 Rocket 3.6 21:53:55 19° SSE 21:56:56 58° E 22:01:17 10° NNE
Cosmos 1624 Rocket 4.4 21:52:16 10° SSW 21:57:29 65° WNW 22:02:46 10° NNE
NOSS 2-2 (C) 4.0 21:54:01 10° SW 21:58:03 62° NW 22:02:42 10° NNE
H-2A R/B 3.6 21:56:03 17° E 21:58:20 22° ENE 22:02:22 10° NNE
Envisat 3.2 21:53:57 12° S 21:58:35 68° WSW 22:03:39 10° NNW
Meteor 2-10 Rocket 4.3 21:53:05 10° NNW 21:58:47 58° W 22:04:21 10° S
Cosmos 1892 4.2 21:55:18 10° SSW 21:58:51 37° WNW 22:02:27 10° N
USA 245 3.6 21:58:30 31° E 21:58:57 32° ENE 22:02:05 10° N
Cosmos 1733 Rocket 4.0 21:58:48 10° SSW 22:03:05 49° W 22:07:23 10° N
Cosmos 1242 Rocket 4.3 22:00:32 10° NNE 22:03:07 18° ENE 22:03:15 18° ENE
Cosmos 1378 Rocket 3.7 22:02:17 10° N 22:06:31 53° E 22:08:06 33° SE
MINOTAUR IV R/B 4.4 22:02:36 10° SSW 22:07:03 76° ESE 22:11:32 10° NNE
Meteor 2-6 Rocket 4.4 22:01:05 10° N 22:07:05 81° W 22:11:36 18° S
TIMED 4.5 22:06:09 21° S 22:08:58 61° ESE 22:13:17 10° NNE
CZ-4 SHROUD 3.1 22:08:16 45° S 22:09:06 87° WSW 22:12:13 10° NNW
Intercosmos 25 4.0 22:12:07 33° E 22:12:10 33° E 22:15:14 10° NNE
SPOT 1/Viking Rocket 3.6 22:10:27 29° SE 22:13:03 65° ENE 22:18:13 10° N
ERBS 2.3 22:12:30 10° NW 22:15:58 75° SW 22:16:36 55° SSE
Cosmos 407 Rocket 3.5 22:14:01 10° NNW 22:19:18 89° WSW 22:21:52 32° SSE
Cosmos 1452 Rocket 3.4 22:16:33 13° SSW 22:21:14 79° ESE 22:26:31 10° NNE
Cosmos 1238 Rocket 2.2 22:18:40 10° N 22:21:46 68° E 22:21:59 65° ESE
Landsat 7 4.5 22:21:42 33° ESE 22:22:55 39° ENE 22:27:21 10° N
SPOT 5 3.6 22:19:21 19° S 22:23:01 56° W 22:28:16 10° NNW
H-2A R/B 3.7 22:24:05 12° SSW 22:27:31 29° W 22:31:16 10° NW
COSMOS 2406 3.9 22:22:01 10° NW 22:27:31 48° WSW 22:30:59 22° S
Cosmos 1190 Rocket 4.4 22:24:47 10° NNW 22:29:51 56° WSW 22:32:30 27° S
PSLV R/B 4.4 22:29:27 30° WSW 22:29:59 33° W 22:32:43 10° NNW
Cosmos 2084 3.4 22:32:18 50° E 22:32:18 50° E 22:35:27 10° NE
Cosmos 2218 Rocket 4.3 22:32:39 35° SE 22:34:46 48° E 22:40:53 10° NNE
Cosmos 1862 3.9 22:33:23 25° SSW 22:35:32 56° W 22:39:34 10° N
Cosmos 1140 Rocket 3.9 22:31:27 10° N 22:36:26 48° ENE 22:37:36 40° ESE
Nadezhda 3 Rocket 4.3 22:31:31 10° NNW 22:37:49 69° W 22:41:46 24° S
Terra 2.4 22:37:58 37° E 22:38:41 39° ENE 22:43:07 10° N
ARGOS 3.1 22:38:33 38° S 22:40:44 81° WSW 22:46:07 10° NNW
DMSP B5D2-2 4.4 22:37:45 10° NNE 22:42:45 44° E 22:43:08 44° ESE
DELTA 2 DEB (DPAF) 4.2 22:42:45 56° ESE 22:43:21 62° ENE 22:47:46 10° N
Okean 2 Rocket 3.0 22:42:45 49° S 22:43:55 86° WNW 22:48:22 10° N
ATLAS 5 CENTAUR R/B 3.2 22:38:13 10° NW 22:43:59 44° WSW 22:46:55 27° SSW
PSLV R/B 4.2 22:44:09 10° WNW 22:46:43 42° WSW 22:46:43 42° WSW
Cosmos 2278 Rocket 2.1 22:43:31 19° SSW 22:47:39 87° WNW 22:53:22 10° NNE
USA 234 3.1 22:42:54 10° NE 22:49:28 87° SE 22:55:59 10° SW
Cosmos 1844 4.4 22:44:30 10° SW 22:50:08 55° WNW 22:55:50 10° NNE
CZ-4B R/B 4.1 22:46:44 10° N 22:51:36 54° WNW 22:54:54 19° SW
Cosmos 2341 Rocket 4.4 22:46:29 16° SSW 22:51:37 61° W 22:57:51 10° N
CZ-4C R/B 3.2 22:54:26 75° NNE 22:54:26 75° NNE 22:58:10 10° N
Cosmos 1727 Rocket 4.3 22:48:19 10° N 22:54:15 46° ENE 22:55:27 41° ESE
Cosmos 1825 3.7 22:54:31 24° WSW 22:56:01 34° WNW 22:59:33 10° NNW
Cosmos 1833 Rocket 3.9 22:51:17 10° N 22:56:04 28° ENE 22:57:19 26° E
Cosmos 1850 Rocket 4.2 22:51:22 10° N 22:56:36 56° ENE 22:57:23 51° ESE
Cosmos 1959 Rocket 4.3 22:58:48 47° S 23:00:43 78° E 23:06:50 10° N
Cosmos 1844 Rocket 4.3 22:56:28 10° WSW 23:01:32 33° WNW 23:06:37 10° N
Timation 2 Rocket 3.9 22:58:05 10° NNW 23:04:04 69° ENE 23:05:20 54° ESE
Cosmos 1184 Rocket 4.4 23:04:01 30° W 23:04:14 30° WNW 23:07:15 10° NNW
Cosmos 1954 Rocket 4.4 23:02:12 10° NNW 23:07:18 56° WSW 23:08:21 47° SSW
Cosmos 2082 Rocket 2.7 23:03:19 10° N 23:08:47 44° ENE 23:09:37 41° E
COSMOS 2487 3.7 23:10:59 10° NNW 23:13:44 39° WNW 23:13:44 39° WNW
Cosmos 1741 Rocket 3.8 23:09:16 10° NNW 23:14:31 78° ENE 23:14:51 74° ESE
IGS 5A 3.7 23:17:59 68° NNW 23:17:59 68° NNW 23:21:40 10° NNW
Cosmos 2297 3.6 23:16:56 63° S 23:17:54 84° ESE 23:23:40 10° NNE
SL-8 Rocket 4.3 23:17:09 33° SSW 23:20:00 61° W 23:26:13 10° N
DNEPR-1 R/B 3.8 23:15:21 10° NNW 23:20:38 75° NE 23:20:38 75° NE
APEX 3.9 23:22:48 58° N 23:22:48 58° N 23:26:49 10° NNE
Cosmos 1339 Rocket 4.4 23:18:31 10° N 23:24:38 68° E 23:25:21 62° ESE
CARTOSAT-1 4.1 23:27:44 54° WNW 23:27:44 54° WNW 23:31:38 10° NNW
USA 229 DEB 4.1 23:26:59 10° NNW 23:33:59 57° NE 23:35:48 46° E
USA 229 4.1 23:27:05 10° NNW 23:34:05 57° NE 23:35:55 45° E
H-2A R/B 2.7 23:36:42 44° WSW 23:37:23 47° W 23:42:35 10° NNW
Meteor 2-19 Rocket 4.3 23:37:44 67° SSW 23:38:36 85° W 23:44:46 10° N
Cosmos 1536 Rocket 4.1 23:35:15 10° NNW 23:39:02 58° NW 23:39:02 58° NW
Iridium 4 Rocket 4.4 23:44:22 10° N 23:49:35 45° ENE 23:49:35 45° ENE
